Wilson Lake Weather Center

Moon Phase Calendar



Wilson Lake Water Level
Online Cameras

 


      

Current Conditions in Killen
2/5/2023 4:54:59 AM

41°F
Feels Like 35
Clear
Humidity
71%
Pressure
30.27"
Wind
9.2 mph (SSE)
Dew Point
32°F
UV Index
0/10 (Low)
Visibility
6 mi

Hourly Forecast

Date & Time Sun, Feb 5
4:00 AM
Sun, Feb 5
5:00 AM
Sun, Feb 5
6:00 AM
Sun, Feb 5
7:00 AM
Sun, Feb 5
8:00 AM
Sun, Feb 5
9:00 AM
Sun, Feb 5
10:00 AM
Sun, Feb 5
11:00 AM
Sun, Feb 5
12:00 PM
Sun, Feb 5
1:00 PM
Sun, Feb 5
2:00 PM
Sun, Feb 5
3:00 PM
Sun, Feb 5
4:00 PM
Sun, Feb 5
5:00 PM
Sun, Feb 5
6:00 PM
Sun, Feb 5
7:00 PM
Sun, Feb 5
8:00 PM
Sun, Feb 5
9:00 PM
Sun, Feb 5
10:00 PM
Sun, Feb 5
11:00 PM
Mon, Feb 6
12:00 AM
Mon, Feb 6
1:00 AM
Mon, Feb 6
2:00 AM
Mon, Feb 6
3:00 AM
Mon, Feb 6
4:00 AM
Mon, Feb 6
5:00 AM
Mon, Feb 6
6:00 AM
Mon, Feb 6
7:00 AM
Mon, Feb 6
8:00 AM
Mon, Feb 6
9:00 AM
Mon, Feb 6
10:00 AM
Mon, Feb 6
11:00 AM
Mon, Feb 6
12:00 PM
Mon, Feb 6
1:00 PM
Mon, Feb 6
2:00 PM
Mon, Feb 6
3:00 PM
Mon, Feb 6
4:00 PM
Mon, Feb 6
5:00 PM
Mon, Feb 6
6:00 PM
Mon, Feb 6
7:00 PM
Mon, Feb 6
8:00 PM
Mon, Feb 6
9:00 PM
Mon, Feb 6
10:00 PM
Mon, Feb 6
11:00 PM
Tue, Feb 7
12:00 AM
Tue, Feb 7
1:00 AM
Tue, Feb 7
2:00 AM
Tue, Feb 7
3:00 AM
Condition
Clouds

Clear

Clouds

Clouds

Clouds

Clouds

Clouds

Clouds

Clouds

Clear

Clear

Clear

Clear

Clear

Clear

Clouds

Clouds

Clouds

Clouds

Clouds

Clouds

Clear

Clear

Clear

Clear

Clear

Clear

Clear

Clear

Clear

Clear

Clear

Clear

Clouds

Clouds

Clouds

Clouds

Clouds

Clouds

Clouds

Clouds

Clouds

Clouds

Clouds

Clouds

Clouds

Clouds

Clouds
Temperature 40°F41°F40°F40°F41°F45°F50°F53°F55°F57°F57°F57°F56°F52°F49°F49°F50°F50°F47°F46°F46°F45°F44°F44°F43°F42°F42°F42°F45°F49°F53°F56°F59°F61°F62°F62°F60°F56°F53°F52°F51°F50°F49°F49°F48°F48°F47°F47°F
Feels Like 35°F36°F35°F35°F36°F39°F45°F51°F53°F54°F55°F55°F54°F50°F46°F46°F48°F48°F45°F45°F44°F43°F43°F44°F43°F42°F41°F39°F43°F47°F52°F55°F58°F59°F61°F61°F59°F55°F51°F50°F49°F47°F46°F45°F45°F45°F44°F44°F
Cloudiness 20%0%20%40%60%80%100%90%75%0%0%0%3%5%9%61%81%86%70%56%46%0%0%0%0%0%0%5%5%6%6%7%7%76%46%35%51%61%57%100%100%99%99%99%99%100%100%100%
Visibility 6 mi6 mi6 mi6 mi6 mi6 mi6 mi6 mi6 mi6 mi6 mi6 mi6 mi6 mi6 mi6 mi6 mi6 mi6 mi6 mi6 mi6 mi6 mi6 mi6 mi6 mi6 mi6 mi6 mi6 mi6 mi6 mi6 mi6 mi6 mi6 mi6 mi6 mi6 mi6 mi6 mi6 mi6 mi6 mi6 mi6 mi6 mi6 mi
Precipitation 0%0%0%0%0%0%0%0%0%0%0%0%0%0%0%0%0%0%0%0%0%0%0%0%0%0%0%0%0%0%0%0%0%0%0%0%0%0%0%0%0%0%0%0%0%0%0%0%
Humidity 75%71%75%79%80%76%68%60%54%53%55%60%67%77%83%85%83%85%89%89%90%90%91%92%92%93%93%94%91%83%76%67%60%55%53%53%62%72%77%79%80%82%83%87%88%89%90%90%
Dew Point 33°F32°F33°F34°F36°F38°F39°F39°F39°F39°F41°F43°F45°F45°F44°F44°F45°F45°F44°F43°F42°F42°F42°F41°F41°F40°F40°F40°F42°F44°F45°F46°F45°F45°F45°F45°F47°F47°F45°F45°F45°F44°F44°F45°F45°F45°F44°F44°F
Pressure 30.27"30.27"30.27"30.27"30.27"30.27"30.27"30.24"30.18"30.15"30.12"30.12"30.12"30.15"30.15"30.18"30.18"30.18"30.18"30.18"30.18"30.18"30.18"30.18"30.21"30.21"30.21"30.24"30.24"30.24"30.24"30.21"30.21"30.15"30.12"30.12"30.12"30.12"30.12"30.15"30.15"30.15"30.15"30.15"30.15"30.15"30.15"30.18"
Wind Speed 8.1 mph7.8 mph7.6 mph8.8 mph8.3 mph10.8 mph12.4 mph13.5 mph13.7 mph13.7 mph13.2 mph12.2 mph9.9 mph6.8 mph6.1 mph5.8 mph5.2 mph5.3 mph4.8 mph3.3 mph3.6 mph3.4 mph3.1 mph2.8 mph2.6 mph2.4 mph3 mph4 mph4.4 mph5.6 mph6.3 mph6.9 mph7 mph7.5 mph7.8 mph8.3 mph7.2 mph7.2 mph7.8 mph7.7 mph8 mph7.8 mph7.6 mph7.3 mph7.2 mph6.8 mph6.7 mph7 mph
Wind
Direction
170°
S
175°
S
181°
S
185°
S
202°
SSW
209°
SSW
217°
SW
219°
SW
226°
SW
231°
SW
234°
SW
239°
WSW
243°
WSW
240°
WSW
240°
WSW
246°
WSW
251°
WSW
247°
WSW
248°
WSW
260°
W
277°
W
291°
WNW
307°
NW
297°
WNW
345°
NNW
32°
NNE
83°
E
97°
E
114°
ESE
125°
SE
136°
SE
148°
SSE
159°
SSE
163°
SSE
168°
SSE
166°
SSE
158°
SSE
156°
SSE
160°
SSE
155°
SSE
154°
SSE
156°
SSE
161°
SSE
156°
SSE
155°
SSE
161°
SSE
159°
SSE
159°
SSE

Daily Forecast

Date High Low Precip. Humidity
Today
Feb 5

Clouds
57 °F
39 °F
0%
54%
Monday
Feb 6

Clear
62 °F
42 °F
0%
60%
Tuesday
Feb 7

Clouds
60 °F
46 °F
0%
67%
Wednesday
Feb 8

Rain
65 °F
53 °F
100%
81%
Thursday
Feb 9

Clear
60 °F
43 °F
80%
53%
Friday
Feb 10

Snow
46 °F
33 °F
40%
66%
Saturday
Feb 11

Clear
43 °F
28 °F
1%
40%
Sunday
Feb 12

Clouds
53 °F
29 °F
0%
37%
Monday
Feb 13

Clouds
60 °F
41 °F
4%
64%
Tuesday
Feb 14

Rain
63 °F
51 °F
100%
80%
Wednesday
Feb 15

Clear
69 °F
48 °F
71%
50%
Thursday
Feb 16

Rain
70 °F
55 °F
100%
83%
Friday
Feb 17

Clouds
54 °F
44 °F
7%
57%
Saturday
Feb 18

Clouds
59 °F
42 °F
0%
50%
Sunday
Feb 19

Rain
62 °F
50 °F
96%
96%
Monday
Feb 20

Rain
69 °F
60 °F
40%
90%

Temperature 8-14 Day Outlook



Precipitation 8-14 Day Outlook




Quick Links
Wilson Lake News
Wilson Lake Photos
Wilson Lake Videos




About Us
Contact Us
Site Map
Search Site
Advertise With Us
   
www.WilsonLake.info
THE WILSON LAKE WEBSITE

Copyright 2023, Lakes Online
Privacy    |    Legal